Location: Ailingen
(47.6833°N, 9.5000°E)
Time: 07:06:18
(UTC+00:00)

ARIANE 5 R/B - Pass Details

Date: 18 November 2025
Orbit: 747 x 791 km, 98.8° (Epoch: 13 December)

Event Time Altitude Azimuth Distance (km) Brightness Sun altitude
Rises 17:43:06 0° 192° (SSW) 3,178 6.0 -20.2°
Reaches altitude 10° 17:45:38 10° 203° (SSW) 2,259 5.3 -20.6°
Maximum altitude 17:49:59 30° 265° (W) 1,324 4.4 -21.3°
Drops below altitude 10° 17:54:22 10° 326° (NW) 2,282 5.3 -22.0°
Sets 17:56:57 0° 337° (NNW) 3,217 6.0 -22.5°
